Un día en 60 segundosParameter Max Max Time Min Min Time Average Wind Direction 360 7:14 5 7:14 45 Wind Speed 29 12:21 0 0:00 2 Wind Gust 29 12:21 0 0:30 9 In Humidity 43 13:52 37 11:14 41 Humidity 74 6:56 35 16:15 58 In Temp 32.5 16:16 28.8 8:17 30.4 Out Temp 37.9 16:19 20.6 6:42 25.8 Raw Barometer 1018.11 11:50 1015.71 16:17 1017.22 Total Rain 266.40 0:00 266.40 0:00 266.40
2/9/26
Time Wind Dir Wind Spd Wind Gust Hum In Humidity Temp In Temp Raw Barom Tot Rain
° km/hr km/hr % % °C °C mb mm
0:00 285 2 11 39 56 30.8 24.5 1017.57 266.40
0:20 285 0 6 38 55 30.7 24.6 1017.74 266.40
0:40 285 0 0 39 56 30.6 24.2 1017.81 266.40
1:00 285 0 2 39 57 30.6 23.6 1017.74 266.40
1:20 285 0 0 39 56 30.5 23.6 1017.67 266.40
1:40 285 0 2 39 55 30.5 23.7 1017.54 266.40
2:00 284 0 5 39 56 30.3 23.4 1017.57 266.40
2:20 282 0 2 39 61 30.3 22.8 1017.57 266.40
2:40 282 0 10 39 66 30.1 22.3 1017.57 266.40
3:00 282 0 10 40 69 30.1 22.0 1017.27 266.40
3:20 282 0 0 40 70 30.1 21.9 1017.10 266.40
3:40 282 0 0 41 69 30.1 22.1 1017.20 266.40
4:00 282 0 0 41 70 30.0 21.9 1017.23 266.40
4:20 282 0 0 41 71 29.9 21.8 1017.13 266.40
4:40 282 0 0 42 71 29.9 21.7 1016.83 266.40
5:00 290 0 3 42 68 29.8 21.5 1016.76 266.40
5:20 296 0 6 41 67 29.7 20.9 1016.69 266.40
5:40 296 0 3 41 70 29.6 20.9 1016.76 266.40
6:00 296 0 3 42 71 29.5 21.2 1016.63 266.40
6:20 302 0 2 42 68 29.4 21.0 1016.76 266.40
6:40 348 0 2 42 70 29.3 20.7 1016.96 266.40
7:00 348 0 2 42 74 29.2 21.0 1017.13 266.40
7:20 30 3 6 42 67 29.1 21.1 1017.07 266.40
7:40 30 0 5 42 65 29.0 20.9 1017.00 266.40
8:00 30 2 8 42 66 28.9 20.9 1017.03 266.40
8:20 33 2 10 42 67 28.9 20.9 1016.93 266.40
8:40 30 2 13 41 66 28.9 21.3 1017.17 266.40
9:00 34 0 13 41 67 28.8 21.7 1017.23 266.40
9:20 46 5 19 41 64 29.2 22.8 1017.30 266.40
9:40 26 2 16 41 61 29.6 24.0 1017.57 266.40
10:00 60 5 16 40 55 30.0 24.9 1017.71 266.40
10:20 49 6 14 39 53 30.3 25.8 1017.67 266.40
10:40 76 6 14 39 52 30.7 26.4 1017.84 266.40
11:00 21 3 14 38 48 30.9 27.4 1017.81 266.40
11:20 43 3 14 37 44 31.2 28.4 1017.91 266.40
11:40 36 2 11 37 48 31.3 29.4 1017.98 266.40
12:00 30 10 14 39 53 31.4 29.6 1018.08 266.40
12:20 53 10 16 40 55 31.6 30.1 1018.01 266.40
12:40 84 6 16 41 52 31.6 30.7 1017.74 266.40
13:00 68 2 16 41 52 31.7 31.4 1017.47 266.40
13:20 34 8 18 42 51 31.7 31.9 1017.23 266.40
13:40 38 2 11 42 48 31.7 32.8 1017.00 266.40
14:00 355 8 14 43 47 31.7 33.5 1016.83 266.40
14:20 351 5 11 43 45 31.7 34.2 1016.73 266.40
14:40 88 0 10 43 43 31.6 35.1 1016.46 266.40
15:00 70 2 10 43 43 31.8 35.4 1016.39 266.40
15:20 29 3 11 43 39 31.8 36.3 1016.29 266.40
15:40 141 0 5 43 39 31.8 36.6 1016.05 266.40
16:00 188 0 5 42 37 32.1 37.4 1015.82 266.40
16:20 113 0 5 41 36 32.5 37.9 1015.75 266.40